Regional Weather Roundup
Issued by NWS Little Rock, AR

Home | Current Version | Previous Version | Text Only | Print | Product List | Glossary Off
Versions: 1 2 3 4 5 6 7 8 9 10 11 12 13 14 15 16 17 18 19 20 21 22 23 24 25 26 27 28 29 30 31 32

000
ASUS44 KLZK 140305
RWRLZK

WEATHER ROUNDUP FOR ARKANSAS
NATIONAL WEATHER SERVICE LITTLE ROCK AR
900 PM CST WED DEC 13 2017

NOTE: "FAIR" INDICATES FEW OR NO CLOUDS BELOW 12,000 FEET WITH NO
SIGNIFICANT WEATHER AND/OR OBSTRUCTIONS TO VISIBILITY.

ARZ001-003-010-029-140400-
NORTHWEST ARKANSAS

CITY           SKY/WX    TMP DP  RH WIND       PRES   REMARKS
FAYETTEVILLE   CLEAR     33  26  75 S6        29.89R WCI  28
FORT SMITH     CLEAR     40  29  64 SW5       29.89R
HARRISON       CLEAR     49  26  41 NW8       29.85R
BENTONVILLE    CLEAR     45  26  47 CALM      29.90R
ROGERS         CLEAR     47  26  44 NW5       29.88R
SILOAM SPGS    CLEAR     43  26  51 W3        29.89R
HIGHFILL       CLEAR     47  27  45 NW6       29.88R
SPRINGDALE     CLEAR     39  27  60 CALM      29.90R
$$

ARZ004-005-016-140400-
NORTH CENTRAL ARKANSAS

CITY           SKY/WX    TMP DP  RH WIND       PRES   REMARKS
BATESVILLE     CLEAR     49  27  42 W9        29.84R
FLIPPIN        CLEAR     53  26  35 W8        29.85R
MTN HOME       CLEAR     50  29  44 VRB5      29.83R
$$

ARZ040-041-140400-
WEST CENTRAL ARKANSAS

CITY           SKY/WX    TMP DP  RH WIND       PRES   REMARKS
MENA           CLEAR     36  30  80 CALM      29.90R
MOUNT IDA      CLEAR     45  28  51 CALM      29.87R
$$

ARZ009-017-025-026-028-140400-
NORTHEAST ARKANSAS

CITY           SKY/WX    TMP DP  RH WIND       PRES   REMARKS
JONESBORO      CLEAR     47  29  49 SW6       29.81S
NEWPORT        CLEAR     47  28  47 W9        29.83S
WALNUT RIDGE   CLEAR     47  26  44 SW9       29.81R
BLYTHEVILLE    CLEAR     45  29  53 SW7       29.80R
$$

ARZ022-023-033-042-044-140400-
CENTRAL ARKANSAS

CITY           SKY/WX    TMP DP  RH WIND       PRES   REMARKS
LITTLE ROCK    CLEAR     48  29  47 SW5       29.87R
N LITTLE ROCK    N/A     52  28  40 CALM      29.90R
JACKSONVILLE   CLEAR     43  27  53 W6        29.86R
SEARCY         CLEAR     46  28  49 W5        29.86R
HOT SPRINGS    CLEAR     48  32  53 SW3       29.88R
RUSSELLVILLE   CLEAR     37  30  75 CALM      29.87R
CLINTON        FAIR      32  28  86 CALM      29.87R
$$

ARZ036-140400-
EAST ARKANSAS

CITY           SKY/WX    TMP DP  RH WIND       PRES   REMARKS
WEST MEMPHIS   CLEAR     43  29  57 SW6       29.83R
$$

ARZ050-053-066-070-073-140400-
SOUTHWEST ARKANSAS

CITY           SKY/WX    TMP DP  RH WIND       PRES   REMARKS
ARKADELPHIA    FAIR      35  28  75 CALM      29.89R
CAMDEN         MOCLDY    48  25  40 S5        29.89R
TEXARKANA      CLEAR     51  30  44 SW10      29.89R
EL DORADO      CLEAR     48  32  53 S8        29.91S
DE QUEEN       CLEAR     36  32  85 CALM      29.88R
$$

ARZ056-057-069-140400-
SOUTHEAST ARKANSAS

CITY           SKY/WX    TMP DP  RH WIND       PRES   REMARKS
PINE BLUFF     CLEAR     52  27  38 SW6       29.87R
STUTTGART      CLEAR     47  30  51 SW3       29.87R
MONTICELLO     CLEAR     53  28  38 SW10      29.89R

$$






USA.gov is the U.S. government's official web portal to all federal, state and local government web resources and services.